Location: Wroclaw
(51.1000°N, 17.0330°E)
Time: 00:49:10
(UTC+01:00)

ISS - Visible Passes

Search period start: 26 January 2020 00:00
Search period end: 05 February 2020 00:00
Orbit: 416 x 423 km, 51.6° (Epoch: 26 January)

Date Brightness Start Highest point End Pass type
(mag) Time Alt. Az. Time Alt. Az. Time Alt. Az.
26 Jan -3.9 18:28:12 10° WSW 18:31:36 79° SSE 18:31:57 68° ESE visible
27 Jan -3.6 17:40:45 10° WSW 17:44:06 64° SSE 17:46:24 19° E visible
27 Jan -1.8 19:17:32 10° W 19:19:22 29° W 19:19:22 29° W visible
28 Jan -3.9 18:29:59 10° W 18:33:23 81° N 18:33:48 65° ENE visible
29 Jan -3.8 17:42:26 10° W 17:45:51 88° N 17:48:13 18° E visible
29 Jan -1.8 19:19:19 10° W 19:21:11 30° W 19:21:11 30° W visible
30 Jan -3.9 18:31:46 10° W 18:35:10 82° N 18:35:36 64° ENE visible
31 Jan -3.8 17:44:11 10° W 17:47:35 79° N 17:50:03 17° E visible
31 Jan -1.9 19:21:02 10° W 19:23:01 31° W 19:23:01 31° W visible
01 Feb -3.7 18:33:27 10° W 18:36:51 77° SSW 18:37:29 55° SE visible
02 Feb -3.8 17:45:52 10° W 17:49:17 90° SE 17:52:00 15° E visible
02 Feb -1.8 19:22:48 10° W 19:24:58 28° WSW 19:24:58 28° WSW visible
03 Feb -2.9 18:35:08 10° W 18:38:24 46° SSW 18:39:35 31° SSE visible
04 Feb -3.3 17:47:31 10° W 17:50:52 61° SSW 17:54:12 10° ESE visible
04 Feb -1.2 19:24:55 10° W 19:27:11 17° SW 19:27:15 17° SW visible
